Location: Bluff Heights
(33.7692°N, 118.1592°W)
Time: 22:28:20
(UTC+00:00)

First-Move - Pass Details

Date: 02 October 2021
Orbit: 574 x 666 km, 97.6° (Epoch: 19 October)

Event Time Altitude Azimuth Distance (km) Brightness Sun altitude
Rises 11:21:46 0° 35° (NE) 2,812 ? -30.8°
Reaches altitude 10° 11:24:57 10° 62° (ENE) 1,895 ? -30.2°
Maximum altitude 11:27:03 14° 93° (E) 1,656 ? -29.8°
Drops below altitude 10° 11:29:08 10° 124° (SE) 1,878 ? -29.4°
Sets 11:32:14 0° 151° (SSE) 2,768 ? -28.8°
